Regional Weather Roundup
Issued by NWS Green Bay, WI

Home | Current Version | Previous Version | Text Only | Print | Product List | Glossary On
Versions: 1 2 3 4 5 6 7 8 9 10 11 12 13 14 15 16 17 18 19 20 21 22 23 24 25 26 27 28 29 30 31 32 33 34 35 36 37 38 39 40 41 42 43 44 45 46 47 48 49 50
000
ASUS43 KGRB 291900
RWRGRB

NORTH-CENTRAL AND NORTHEAST WISCONSIN REGIONAL WEATHER ROUNDUP
NATIONAL WEATHER SERVICE GREEN BAY WI
200 PM CDT FRI JUL 29 2016

WIZ005-009-010>012-018-019-292000-
NORTH CENTRAL WISCONSIN

CITY           SKY/WX    TMP DP  RH WIND       PRES   REMARKS
IRONWOOD       MOSUNNY   72  57  60 N8        30.07S
MANITOWISH WTR NOT AVBL
ARBOR VITAE    NOT AVBL
EAGLE RIVER    NOT AVBL
LAND O LAKES   NOT AVBL
RHINELANDER    MOSUNNY   75  53  46 SE5       30.09F
PHILLIPS       MOSUNNY   73  56  54 E5        30.08F
ANTIGO         NOT AVBL
TOMAHAWK       PTSUNNY   74  57  55 E3        30.08F
MERRILL        CLOUDY    75  58  55 E8        30.06F
$$

WIZ013-073-292000-
NORTHEAST WISCONSIN

CITY           SKY/WX    TMP DP  RH WIND       PRES   REMARKS
IRON MOUNTAIN  CLOUDY    74  54  49 E6        30.07S
MARINETTE      NOT AVBL
$$

WIZ017-030-035>037-045-292000-
CENTRAL WISCONSIN

CITY           SKY/WX    TMP DP  RH WIND       PRES   REMARKS
MEDFORD        NOT AVBL
WAUSAU         CLOUDY    74  59  59 SE10      30.04F
MOSINEE        NOT AVBL
MARSHFIELD     CLOUDY    74  61  63 E7        30.04S
WISC RAPIDS    CLOUDY    71  61  70 SE7       30.05F
STEVENS POINT  NOT AVBL
WAUPACA        NOT AVBL
SHAWANO        NOT AVBL
CLINTONVILLE   CLOUDY    73  61  64 E8        30.04F
WAUTOMA        CLOUDY    69  64  84 NE8       30.04S
$$

WIZ038-039-048-051-292000-
FOX VALLEY

CITY           SKY/WX    TMP DP  RH WIND       PRES   REMARKS
NWS GREEN BAY  CLOUDY    72  66  81 NE9       30.03F
APPLETON       PTSUNNY   73  61  64 NE9       30.02S
OSHKOSH        LGT RAIN  71  64  78 E7        30.02S
FOND DU LAC    CLOUDY    73  65  75 E9        30.02F
$$

WIZ022-050-052-292000-
EAST CENTRAL WISCONSIN

CITY           SKY/WX    TMP DP  RH WIND       PRES   REMARKS
EPHRAIM        FAIR      73  59  60 E10       30.06S
WASHINGTON ISL NOT AVBL
STURGEON BAY   PTSUNNY   75  62  64 NE9       30.05F
MANITOWOC      NOT AVBL
SHEBOYGAN      PTSUNNY   73  63  70 NE13      30.02F
$$

LMZ563-521-522-541>543-292000-
LAKESHORE

STATION/POSITION TIME  TEMP    WIND        PRES    VSBY  WAVE
                       AIR SEA DIR/SP/G                  HT/PER
                 (UTC) (F)     (DEG/KT/KT) (MB)    (MI)  (FT/S)
SHEBOYGAN LKSHOR 1800   63      10/ 13/ 13 1016.8F
KEWAUNEE LKSHORE 1800   70      20/  3/  6 1016.9F
ALGOMA MARINA    1813           80/ 13/ 16   N/A
NORTHPORT PIER   1800   72      70/ 10/ 13 1017.9S
N MID LAKE BUOY  1750   68 70   60/ 12/ 14 1017.5R         2/ 4
S GREEN BAY BUOY 1800   71 71   40/ 10/ 10 1016.9
SISTER BAY LKSHO 1821   79     130/  9/ 14   N/A
CHAMBERS ISLAND  1800   71      50/  7/ 11 1017.9R
MENOMINEE LKSHOR 1800   71      30/ 13/ 14 1016.9S
$$



USA.gov is the U.S. government's official web portal to all federal, state and local government web resources and services.